DB0SVX Weather Reports


Display with metric or nautical units.
time (UTC)temp
F
wind
direction
speed
MPH
gust
MPH
rain 1hr
in
rain 24hr
in
rain mn
in
humidity
%
barometer
mb
20260507194022 48 135 0.0 0.0 0.00 0.00 0.00 40 1014.2
20260507192522 49 112 2.0 0.0 0.00 0.00 0.00 42 1014.0
20260507191022 49 112 4.0 0.0 0.00 0.00 0.00 43 1013.7
20260507185522 50 112 0.0 0.0 0.00 0.00 0.00 45 1013.5
20260507184022 51 112 0.0 0.0 0.00 0.00 0.00 46 1013.4
20260507182523 52 112 1.0 0.0 0.00 0.00 0.00 47 1013.2
20260507181022 54 112 3.0 0.0 0.00 0.00 0.00 47 1013.0
20260507175522 55 90 0.0 0.0 0.00 0.00 0.00 48 1012.9
20260507174022 58 112 4.0 0.0 0.00 0.00 0.00 46 1012.7
20260507172523 60 112 4.0 0.0 0.00 0.00 0.00 44 1012.7
20260507171022 62 112 0.0 0.0 0.00 0.00 0.00 42 1012.7
20260507165522 64 90 0.0 0.0 0.00 0.00 0.00 40 1012.5
20260507164022 69 135 2.0 0.0 0.00 0.00 0.00 36 1012.5
20260507162522 75 90 4.0 0.0 0.00 0.00 0.00 32 1012.5
20260507161022 77 157 1.0 0.0 0.00 0.00 0.00 32 1012.4
20260507155522 77 315 0.0 0.0 0.00 0.00 0.00 31 1012.5
20260507154022 74 112 4.0 0.0 0.00 0.00 0.00 34 1012.4
20260507152523 71 180 2.0 0.0 0.00 0.00 0.00 36 1012.4
20260507151022 67 315 5.0 0.0 0.00 0.00 0.00 39 1012.4
20260507145522 67 337 0.0 0.0 0.00 0.06 0.00 38 1012.4
20260507144022 73 292 9.0 0.0 0.00 0.06 0.00 34 1012.4
20260507142522 75 22 3.0 0.0 0.00 0.06 0.00 34 1012.2
20260507141022 64 337 3.0 0.0 0.00 0.06 0.00 41 1012.5
20260507135522 64 90 0.0 0.0 0.00 0.06 0.00 41 1012.5
20260507134022 62 112 0.0 0.0 0.00 0.06 0.00 42 1012.5
20260507132522 63 90 2.0 0.0 0.00 0.06 0.00 42 1012.7
20260507131022 65 112 0.0 0.0 0.00 0.06 0.00 40 1012.4
20260507125522 61 90 0.0 0.0 0.00 0.10 0.00 43 1012.5
20260507124022 62 225 2.0 0.0 0.00 0.10 0.00 42 1012.4
20260507122522 63 337 0.0 0.0 0.00 0.10 0.00 42 1012.5
20260507121022 62 112 2.0 0.0 0.00 0.10 0.00 42 1012.5
20260507115523 66 0 4.0 0.0 0.00 0.10 0.00 38 1012.5
20260507114022 70 292 7.0 0.0 0.00 0.10 0.00 35 1012.5
20260507112522 68 337 3.0 0.0 0.00 0.10 0.00 36 1012.4
20260507111022 69 292 6.0 0.0 0.00 0.10 0.00 35 1012.4
20260507105522 65 225 5.0 0.0 0.00 0.10 0.00 37 1012.5
20260507104022 64 0 4.0 0.0 0.00 0.10 0.00 37 1012.7
20260507102522 63 180 2.0 0.0 0.00 0.10 0.00 37 1012.5
20260507101022 62 247 6.0 0.0 0.00 0.10 0.00 36 1012.7
20260507095522 60 22 0.0 0.0 0.00 0.10 0.00 35 1012.7
20260507094022 57 292 0.0 0.0 0.00 0.10 0.00 35 1012.7
20260507092522 57 202 0.0 0.0 0.00 0.10 0.00 34 1012.5
20260507091022 57 270 5.0 0.0 0.00 0.10 0.00 30 1012.7
20260507085522 56 315 1.0 0.0 0.00 0.10 0.00 22 1012.2
20260507084022 52 315 0.0 0.0 0.00 0.10 0.00 19 1012.2
20260507082522 50 292 0.0 0.0 0.00 0.10 0.00 20 1012.2
20260507081022 50 315 1.0 0.0 0.00 0.10 0.00 23 1012.2
20260507075522 50 270 0.0 0.0 0.00 0.10 0.00 27 1012.0
20260507074022 53 337 1.0 0.0 0.00 0.10 0.00 26 1011.9
20260507072522 52 270 3.0 0.0 0.00 0.10 0.00 20 1011.9
20260507071022 49 270 0.0 0.0 0.00 0.10 0.00 23 1011.5
20260507065522 50 180 0.0 0.0 0.00 0.10 0.00 27 1011.5
20260507064022 51 90 0.0 0.0 0.00 0.10 0.00 26 1011.5
20260507062522 51 22 5.0 0.0 0.00 0.10 0.00 22 1011.4
20260507061022 50 247 12.0 0.0 0.00 0.10 0.00 20 1011.2
20260507055522 50 337 0.0 0.0 0.00 0.10 0.00 16 1011.0
20260507054022 49 292 0.0 0.0 0.00 0.10 0.00 11 1011.0
20260507052522 48 292 0.0 0.0 0.00 0.10 0.00 1011.0
20260507051022 47 202 2.0 0.0 0.00 0.10 0.00 1010.7
20260507045522 46 45 2.0 0.0 0.00 0.10 0.00 1010.5
20260507044022 46 315 0.0 0.0 0.00 0.10 0.00 1010.4
20260507042522 44 202 0.0 0.0 0.00 0.10 0.00 1010.0
20260507041022 44 315 0.0 0.0 0.00 0.10 0.00 1009.9
20260507035522 44 0 0.0 0.0 0.00 0.12 0.00 1009.9
20260507034022 44 292 3.0 0.0 0.00 0.12 0.00 1009.7
20260507032522 45 315 2.0 0.0 0.00 0.12 0.00 1009.7
20260507031022 45 225 3.0 0.0 0.00 0.12 0.00 1009.7
20260507025522 46 225 3.0 0.0 0.00 0.12 0.00 1009.7
20260507024022 46 90 5.0 0.0 0.00 0.12 0.00 1009.7
20260507022522 46 270 0.0 0.0 0.00 0.12 0.00 1009.7
20260507021022 45 22 0.0 0.0 0.00 0.12 0.00 1009.5
20260507015522 45 337 0.0 0.0 0.00 0.12 0.00 1009.5
20260507014022 44 270 0.0 0.0 0.00 0.12 0.00 1009.4
20260507012522 44 202 0.0 0.0 0.00 0.12 0.00 1009.7
20260507011022 43 270 0.0 0.0 0.00 0.12 0.00 1009.7
20260507005522 43 292 0.0 0.0 0.00 0.12 0.00 1009.5
20260507004022 43 270 0.0 0.0 0.00 0.12 0.00 1009.2
20260507002522 43 0 0.0 0.0 0.00 0.12 0.00 10 1009.4
20260507001022 44 337 0.0 0.0 0.00 0.12 0.00 12 1009.2
20260506235522 44 337 0.0 0.0 0.00 0.12 0.00 15 1009.5
20260506234022 44 337 0.0 0.0 0.00 0.12 0.00 17 1009.5
20260506232522 45 337 0.0 0.0 0.00 0.12 0.00 17 1009.5
20260506231022 46 0 0.0 0.0 0.00 0.12 0.00 17 1009.2
20260506225522 46 337 0.0 0.0 0.00 0.12 0.00 19 1009.0
20260506224022 46 292 0.0 0.0 0.00 0.12 0.00 19 1009.0
20260506222522 46 0 3.0 0.0 0.00 0.12 0.00 20 1009.0
20260506221022 46 22 2.0 0.0 0.00 0.12 0.00 21 1009.0
20260506215522 47 337 0.0 0.0 0.00 0.12 0.00 22 1009.0
20260506214022 47 337 0.0 0.0 0.00 0.12 0.00 22 1009.0
20260506212522 47 22 0.0 0.0 0.00 0.12 0.00 22 1009.0
20260506211022 47 292 14.0 0.0 0.00 0.12 0.00 23 1008.9
20260506205522 47 0 0.0 0.0 0.00 0.12 0.00 24 1008.7
20260506204022 47 0 2.0 0.0 0.00 0.12 0.00 25 1008.7
20260506202522 47 45 3.0 0.0 0.00 0.12 0.00 25 1008.5
20260506201021 47 292 4.0 0.0 0.00 0.12 0.00 27 1008.5
20260506195521 47 337 1.0 0.0 0.00 0.12 0.00 28 1008.5